| time (UTC) | temp C | wind direction | speed KPH | gust KPH | rain 1hr cm | rain 24hr cm | rain mn cm | humidity % | barometer mb |
| 20260504214506 | 11 | 309 | 0.0 | 3.2 | 0.00 | 0.00 | 0.00 | 42 | 1007.4 |
| 20260504213009 | 10 | 302 | 0.0 | 6.4 | 0.00 | 0.00 | 0.00 | 46 | 1007.5 |
| 20260504211503 | 11 | 285 | 0.0 | 6.4 | 0.00 | 0.00 | 0.00 | 43 | 1007.4 |
| 20260504210003 | 11 | 332 | 0.0 | 4.8 | 0.00 | 0.00 | 0.00 | 34 | 1007.4 |
| 20260504204502 | 11 | 98 | 0.0 | 9.7 | 0.00 | 0.00 | 0.00 | 32 | 1007.4 |
| 20260504203005 | 11 | 346 | 1.6 | 8.0 | 0.00 | 0.00 | 0.00 | 32 | 1007.5 |
| 20260504201502 | 11 | 336 | 3.2 | 11.3 | 0.00 | 0.00 | 0.00 | 30 | 1007.5 |
| 20260504200002 | 12 | 330 | 4.8 | 11.3 | 0.00 | 0.00 | 0.00 | 28 | 1007.6 |
| 20260504194504 | 12 | 305 | 0.0 | 4.8 | 0.00 | 0.00 | 0.00 | 31 | 1007.7 |
| 20260504193011 | 13 | 262 | 4.8 | 12.9 | 0.00 | 0.00 | 0.00 | 28 | 1007.7 |
| 20260504191501 | 13 | 343 | 0.0 | 4.8 | 0.00 | 0.00 | 0.00 | 25 | 1007.8 |
| 20260504190128 | 12 | 338 | 0.0 | 9.7 | 0.00 | 0.00 | 0.00 | 27 | 1008.0 |
| 20260504184653 | 12 | 334 | 0.0 | 6.4 | 0.00 | 0.00 | 0.00 | 29 | 1008.1 |
| 20260504183053 | 11 | 130 | 0.0 | 9.7 | 0.00 | 0.00 | 0.00 | 28 | 1008.2 |
| 20260504181556 | 11 | 243 | 0.0 | 1.6 | 0.00 | 0.00 | 0.00 | 30 | 1008.5 |
| 20260504180133 | 11 | 336 | 1.6 | 9.7 | 0.00 | 0.00 | 0.00 | 30 | 1008.7 |
| 20260504174550 | 12 | 322 | 1.6 | 12.9 | 0.00 | 0.00 | 0.00 | 29 | 1008.7 |
| 20260504173058 | 12 | 9 | 3.2 | 14.5 | 0.00 | 0.00 | 0.00 | 29 | 1008.7 |
| 20260504171543 | 11 | 359 | 0.0 | 9.7 | 0.00 | 0.00 | 0.00 | 31 | 1008.9 |
| 20260504081551 | 3 | 115 | 1.6 | 3.2 | 0.00 | 0.00 | 0.00 | 40 | 1009.9 |
| 20260504044534 | 3 | 99 | 0.0 | 0.0 | 0.00 | 0.00 | 0.00 | 42 | 1011.4 |
| 20260504043034 | 4 | 98 | 0.0 | 0.0 | 0.00 | 0.00 | 0.00 | 44 | 1011.5 |
| 20260504041536 | 5 | 98 | 0.0 | 0.0 | 0.00 | 0.00 | 0.00 | 42 | 1011.4 |
| 20260504040039 | 6 | 98 | 0.0 | 0.0 | 0.00 | 0.00 | 0.00 | 38 | 1011.4 |
| 20260504034542 | 6 | 98 | 0.0 | 0.0 | 0.00 | 0.00 | 0.00 | 36 | 1011.5 |
| 20260504033034 | 6 | 98 | 0.0 | 1.6 | 0.00 | 0.00 | 0.00 | 34 | 1011.5 |
| 20260504031533 | 7 | 98 | 0.0 | 1.6 | 0.00 | 0.00 | 0.00 | 33 | 1011.4 |
| 20260504030038 | 7 | 96 | 0.0 | 1.6 | 0.00 | 0.00 | 0.00 | 32 | 1011.4 |
| 20260504024540 | 7 | 91 | 0.0 | 1.6 | 0.00 | 0.00 | 0.00 | 31 | 1011.3 |
| 20260504023033 | 7 | 37 | 0.0 | 0.0 | 0.00 | 0.00 | 0.00 | 32 | 1011.3 |
| 20260504021534 | 8 | 340 | 0.0 | 0.0 | 0.00 | 0.00 | 0.00 | 32 | 1011.2 |
| 20260504020035 | 9 | 340 | 0.0 | 0.0 | 0.00 | 0.00 | 0.00 | 29 | 1011.1 |
| 20260504014532 | 10 | 338 | 0.0 | 0.0 | 0.00 | 0.00 | 0.00 | 29 | 1011.2 |
| 20260504013031 | 11 | 25 | 0.0 | 4.8 | 0.00 | 0.00 | 0.00 | 24 | 1011.2 |
| 20260504011531 | 11 | 343 | 0.0 | 1.6 | 0.00 | 0.00 | 0.00 | 25 | 1011.2 |
| 20260504010029 | 12 | 6 | 0.0 | 3.2 | 0.00 | 0.00 | 0.00 | 25 | 1011.3 |
| 20260504004528 | 12 | 236 | 0.0 | 0.0 | 0.00 | 0.00 | 0.00 | 24 | 1011.4 |
| 20260504003025 | 13 | 300 | 0.0 | 1.6 | 0.00 | 0.00 | 0.00 | 24 | 1011.5 |
| 20260504001524 | 14 | 106 | 0.0 | 4.8 | 0.00 | 0.00 | 0.00 | 20 | 1011.6 |
| 20260504000024 | 14 | 295 | 1.6 | 4.8 | 0.00 | 0.00 | 0.00 | 22 | 1011.5 |
| 20260503234526 | 13 | 344 | 3.2 | 11.3 | 0.00 | 0.00 | 0.00 | 22 | 1011.7 |
| 20260503233021 | 13 | 323 | 3.2 | 6.4 | 0.00 | 0.00 | 0.00 | 23 | 1011.8 |
| 20260503231521 | 13 | 307 | 0.0 | 6.4 | 0.00 | 0.00 | 0.00 | 25 | 1011.8 |
| 20260503230020 | 13 | 359 | 1.6 | 8.0 | 0.00 | 0.00 | 0.00 | 19 | 1011.8 |
| 20260503224519 | 14 | 341 | 1.6 | 8.0 | 0.00 | 0.00 | 0.00 | 22 | 1012.1 |
| 20260503223023 | 13 | 323 | 0.0 | 9.7 | 0.00 | 0.00 | 0.00 | 19 | 1012.0 |
| 20260503221516 | 13 | 358 | 0.0 | 16.1 | 0.00 | 0.00 | 0.00 | 20 | 1012.3 |
| 20260503220017 | 13 | 343 | 4.8 | 14.5 | 0.00 | 0.00 | 0.00 | 19 | 1012.6 |